Wind_Speed
10 9 8 8 7 6 5 5 5 6 7 8 9 9 11 12 13 14 15 16 17 18 19 19 20 20 20 21 22 21 20 21 22 23 26 28 29 33 37 40 41 41 41 42 43 46 46 47 46 46 46 47 49 48 45 38 31 30 32 37 41 40 40 34 30 30 28 28 25 24 24 22 20 17 18 17 17 19 18 11 11 11 9 12 13 10 9 11
10 9 7 5 5 5 5 6 6 7 8 9 10 11 12 13 15 16 17 18 19 20 20 21 21 21 21 23 25 24 23 23 22 24 25 23 24 28 31 33 36 37 38 39 41 42 43 44 42 43 45 46 48 49 48 41 34 35 35 39 45 43 38 34 31 30 28 27 26 24 25 25 24 22 20 19 18 19 20 16 14 13 14 17 13 9 12 11
9 7 5 4 4 5 6 7 8 9 9 10 12 13 15 17 18 19 21 21 22 23 23 23 23 23 22 23 26 26 26 25 25 28 24 22 24 25 25 27 31 32 34 36 38 40 41 41 39 37 39 43 44 44 47 42 37 39 39 41 46 42 37 34 32 32 30 28 27 25 23 21 21 24 24 20 18 19 20 18 17 15 17 20 12 8 12 12
9 7 5 5 5 7 8 9 10 11 12 14 15 17 19 21 22 23 24 24 25 25 25 26 25 25 24 24 26 26 28 26 28 32 26 24 25 24 24 24 26 28 31 33 35 38 39 39 39 35 32 38 41 37 40 42 39 40 43 47 45 37 37 38 34 32 30 29 29 28 26 23 18 20 26 23 19 20 20 17 18 18 18 21 15 9 10 12
10 8 6 7 8 9 11 12 13 14 16 17 19 21 22 24 25 26 27 27 27 27 28 28 27 27 25 26 26 26 27 21 24 32 27 25 25 23 24 22 23 25 27 30 32 34 36 36 37 37 34 35 36 35 38 42 41 39 43 49 45 38 38 37 35 34 31 30 30 31 31 28 20 19 26 28 25 22 20 18 17 19 18 17 15 10 10 12
11 9 9 9 11 12 13 14 16 17 19 20 21 22 23 24 25 26 27 28 28 28 29 29 29 29 27 27 26 26 25 17 23 33 27 26 26 23 23 21 21 22 24 27 29 31 33 33 34 38 39 35 34 36 38 39 39 40 42 46 45 44 41 34 32 34 33 32 33 33 33 30 24 22 23 28 29 25 22 19 14 12 13 16 15 10 10 11
11 11 11 11 13 14 15 17 18 19 20 21 21 21 22 24 25 27 27 28 28 28 29 29 29 29 28 28 27 27 26 22 29 35 29 29 29 26 25 23 21 21 22 24 27 29 29 30 33 36 36 35 33 35 37 35 37 41 42 44 44 44 44 40 34 31 32 35 36 34 33 32 29 24 22 25 28 26 24 21 16 12 10 14 16 13 12 12
13 12 12 12 14 15 16 17 18 19 20 20 21 22 24 25 26 27 27 27 27 27 28 29 29 30 29 29 28 26 25 25 31 33 29 30 31 29 28 26 24 22 22 23 25 27 27 29 31 31 31 32 32 33 34 33 35 41 45 43 41 42 42 42 41 36 32 32 33 35 36 33 31 27 23 24 25 24 25 21 19 21 19 18 19 19 15 14
14 13 13 14 14 15 16 17 17 18 19 21 22 24 26 26 27 27 27 27 27 27 28 28 29 29 29 28 29 26 23 26 30 30 30 31 31 30 29 27 27 24 23 24 24 25 27 27 28 28 28 28 29 30 31 34 37 40 44 42 39 39 39 38 41 43 39 33 30 35 39 36 31 28 28 27 24 22 24 23 19 25 30 26 23 21 17 15
15 15 15 15 16 16 17 18 18 19 21 22 23 25 26 26 27 27 26 26 26 27 27 28 27 27 27 27 28 26 24 27 29 29 30 29 29 29 28 27 27 26 25 25 25 25 25 25 24 23 26 26 26 28 30 34 37 36 36 39 40 38 38 37 36 40 44 39 33 34 39 39 32 30 33 31 27 24 23 22 21 26 29 25 23 21 19 17
16 16 16 16 16 17 18 19 19 20 21 22 22 24 25 25 25 25 25 25 25 25 25 26 26 26 26 27 29 27 25 27 30 30 29 27 27 27 27 26 25 26 26 26 26 25 25 26 22 19 23 26 26 26 29 32 33 33 30 32 38 37 36 39 34 33 40 42 39 34 34 37 35 36 38 31 28 28 27 23 23 29 26 22 24 22 21 20
16 16 16 17 17 18 18 19 19 20 20 20 21 22 23 23 22 22 23 23 24 24 24 24 25 25 26 28 29 25 23 26 30 30 28 25 24 25 26 26 24 25 26 26 26 24 25 26 25 23 21 20 25 24 24 28 28 30 31 28 30 33 35 41 38 33 36 39 39 35 33 38 40 43 41 32 27 27 30 30 27 33 28 22 24 21 22 22
17 18 18 19 19 19 19 19 19 19 19 20 21 22 22 21 21 21 21 21 23 24 24 24 24 25 26 28 26 23 23 26 28 27 27 25 23 24 25 26 25 25 26 26 25 24 27 27 28 31 24 16 21 22 18 22 26 27 30 29 25 28 34 40 40 35 36 38 35 33 36 41 44 44 39 32 31 29 31 32 28 31 30 24 23 22 22 22
19 19 20 20 20 19 19 19 19 20 20 21 22 22 21 21 21 21 21 22 23 24 25 24 24 25 27 28 25 23 24 26 26 25 24 23 23 23 23 25 25 24 26 27 25 25 27 28 29 32 32 24 17 18 20 21 26 27 28 31 28 28 33 37 39 36 37 38 35 34 38 44 42 40 37 34 34 33 33 34 28 27 30 29 27 23 22 23
20 21 21 21 20 19 19 21 21 21 22 22 22 22 21 21 21 22 23 23 24 26 25 24 25 26 28 29 26 24 24 25 25 24 24 24 23 22 22 24 24 24 25 26 25 25 25 25 28 30 34 34 21 17 22 21 24 28 29 31 31 31 31 33 38 38 38 38 35 36 41 46 41 36 34 34 35 33 34 37 33 28 30 33 31 25 22 23
21 21 22 21 20 20 21 22 22 23 24 24 23 22 21 21 21 23 23 23 24 26 25 24 25 26 26 27 27 25 22 22 23 22 21 22 22 22 23 24 23 23 24 25 24 25 24 23 25 27 27 30 26 22 21 21 25 29 31 32 31 34 33 31 35 40 41 38 37 40 44 44 38 35 33 33 35 34 35 35 34 31 32 35 33 28 24 24
21 21 22 22 22 21 22 23 24 25 26 25 23 22 21 21 22 24 24 22 23 24 24 23 24 25 24 23 24 21 19 22 23 22 21 22 23 22 23 23 21 19 20 23 24 23 23 21 21 24 24 24 27 28 25 24 28 29 32 35 33 35 36 34 33 37 41 40 40 43 48 43 33 32 33 33 35 35 36 33 30 31 32 34 34 29 26 25
22 22 22 23 23 23 23 24 26 28 27 26 23 21 21 21 21 24 22 19 20 22 23 23 21 19 16 15 15 12 13 19 20 19 21 22 22 21 20 20 18 16 15 17 21 21 20 20 20 21 23 26 28 31 32 31 32 32 33 36 37 36 36 37 35 33 37 42 43 43 47 45 36 31 31 32 34 36 36 32 29 29 31 33 32 29 27 26
22 22 23 23 24 24 24 25 28 29 28 25 22 21 22 22 23 25 23 20 20 18 16 20 23 19 13 12 14 12 14 21 20 17 19 20 19 18 17 17 16 14 14 15 19 22 20 20 22 23 25 29 31 34 37 35 33 34 34 34 35 34 33 35 35 32 34 39 43 44 44 42 39 36 30 29 35 37 33 30 28 29 32 33 31 30 29 27
22 22 23 24 24 25 25 26 29 29 28 25 22 20 19 21 22 21 23 24 21 18 16 19 24 24 21 20 19 16 18 26 27 21 19 19 19 19 18 18 15 14 16 17 19 21 22 23 25 28 28 29 33 35 36 36 34 33 32 31 30 31 32 31 33 33 33 35 40 43 42 37 36 38 34 31 33 35 32 30 29 30 30 30 29 30 29 28
23 23 23 24 24 25 25 26 29 29 28 25 23 21 18 19 20 18 23 23 16 19 23 20 21 23 24 23 20 20 21 25 25 21 18 18 20 21 19 18 16 17 19 19 19 19 23 28 28 28 29 29 31 33 34 34 34 33 31 32 30 30 33 31 30 33 33 33 36 38 38 35 34 36 37 35 32 33 34 32 31 30 29 28 29 30 29 29
23 23 23 24 25 25 25 26 28 29 28 26 24 22 20 21 22 22 27 25 16 17 20 16 16 19 20 19 17 19 20 19 18 16 16 19 21 20 16 16 19 19 19 18 20 21 25 31 30 27 28 30 29 30 33 33 33 34 34 34 33 31 32 31 30 32 34 33 32 34 36 35 33 33 35 37 36 35 36 36 34 32 30 29 32 33 30 31
24 23 23 24 25 25 25 26 29 30 28 26 24 22 21 22 23 23 27 29 25 18 13 10 12 14 15 14 12 13 14 13 12 9 13 19 19 18 15 16 20 20 19 20 21 24 26 29 29 29 29 29 29 29 31 33 33 34 35 34 32 31 31 31 31 30 31 31 29 30 32 33 32 31 34 37 37 36 36 37 36 33 32 31 33 34 33 34
24 24 24 24 25 26 25 26 28 30 28 25 24 23 22 22 24 24 26 31 30 17 8 9 11 12 11 10 10 10 11 12 11 9 15 19 15 16 18 18 20 21 21 22 22 25 26 26 27 30 30 28 29 30 30 32 33 35 36 34 30 30 32 32 31 28 26 27 28 28 28 31 33 33 35 36 36 36 36 37 36 34 32 31 33 35 34 35
24 25 24 24 25 25 26 26 28 30 28 25 24 24 22 22 22 25 26 28 25 12 8 11 11 10 11 10 10 9 10 14 14 12 17 19 13 15 17 17 19 22 23 22 23 26 27 27 27 28 30 30 30 32 33 32 32 33 37 36 31 29 31 31 30 30 27 26 30 31 23 23 31 35 35 36 36 36 36 36 36 34 33 31 33 36 34 33
25 25 25 25 24 24 25 27 29 30 28 26 24 22 22 22 22 24 25 20 13 7 8 10 9 8 9 8 10 10 10 14 14 14 16 17 15 16 17 17 20 22 22 22 23 25 26 27 29 28 29 32 32 33 34 33 32 33 37 38 31 27 29 31 31 32 30 26 29 34 24 17 25 33 34 35 35 36 36 35 36 35 34 34 35 36 34 33
24 25 25 25 24 24 24 25 28 29 27 26 25 23 22 21 21 23 18 10 8 8 9 10 11 11 8 8 11 10 8 8 10 12 13 13 14 16 19 19 20 22 20 20 23 24 25 27 29 30 30 32 36 36 35 35 34 32 35 36 31 27 28 31 34 33 30 26 25 33 32 23 22 29 33 35 35 35 37 36 36 37 36 37 37 37 35 33
23 24 24 25 25 24 24 25 27 28 27 26 24 24 22 21 22 19 10 5 6 6 9 12 14 13 11 12 15 13 11 9 10 12 12 12 12 14 19 20 21 23 19 20 25 24 25 29 30 31 31 31 35 37 33 35 35 31 31 34 32 28 24 26 34 34 30 25 23 30 34 24 19 26 32 36 37 36 39 39 37 37 38 39 40 39 36 32
23 24 24 24 24 23 24 24 25 26 26 26 26 24 22 22 20 13 5 4 5 6 9 13 14 13 10 12 14 14 15 13 11 11 11 12 12 13 18 19 19 23 21 22 28 26 24 27 28 32 33 30 31 35 33 34 34 31 28 30 33 32 27 23 27 35 32 24 22 28 33 22 17 26 31 35 41 41 39 40 38 37 38 40 41 40 37 33
22 23 24 24 24 24 24 24 25 26 25 26 27 25 24 22 16 8 5 6 8 10 12 13 13 10 8 11 15 15 16 16 14 14 13 13 14 15 18 18 17 20 22 24 28 29 26 24 25 31 33 28 27 32 34 32 31 31 29 29 31 33 32 25 24 32 26 18 24 30 34 27 17 24 32 34 39 40 36 37 38 38 38 39 41 41 38 34
21 23 23 24 23 23 24 25 27 27 25 26 26 27 25 17 9 5 6 9 13 15 14 12 9 10 10 13 17 18 18 19 17 17 19 17 16 18 18 18 18 18 21 24 27 29 29 26 25 31 31 25 24 29 33 32 32 32 31 31 29 28 31 27 24 26 16 13 27 33 34 31 21 23 32 33 33 34 35 37 38 38 38 37 39 42 40 36
20 22 23 23 23 23 22 23 26 26 25 25 26 27 22 10 6 7 10 13 11 10 12 13 14 16 17 16 19 20 19 20 19 19 21 19 19 21 21 21 20 18 20 24 25 25 29 29 26 29 31 27 25 27 31 34 35 35 34 33 26 19 21 21 18 18 13 15 28 33 32 29 25 27 30 28 30 32 33 35 37 38 39 38 39 42 42 37
21 21 22 22 22 23 21 21 24 25 24 24 26 26 15 5 6 9 15 17 12 14 19 21 23 24 22 20 21 19 17 20 20 20 19 19 21 23 23 23 22 20 19 20 21 21 23 26 26 27 30 30 27 27 31 35 37 37 38 35 25 13 12 14 13 12 15 20 28 33 29 23 24 30 30 26 27 31 31 31 34 38 40 41 40 41 42 38
21 21 22 22 22 22 21 20 23 25 24 23 25 23 10 7 10 16 22 24 23 27 28 25 27 27 25 24 23 16 14 18 18 17 17 19 21 23 24 25 24 23 19 16 19 22 20 20 26 29 29 30 29 28 29 32 35 37 37 35 28 21 15 13 13 13 15 20 26 29 24 21 23 24 29 29 23 26 31 29 32 36 38 40 40 40 41 40
22 20 21 21 22 23 20 19 23 24 23 24 24 18 9 9 16 23 28 29 29 31 29 29 30 29 26 23 19 13 14 15 11 12 17 19 20 22 24 22 23 24 20 15 17 22 24 21 24 27 26 28 29 27 27 30 33 35 37 35 32 29 23 17 17 18 17 16 20 23 21 27 26 15 21 29 23 22 28 29 31 34 37 38 38 38 39 40
23 22 21 21 23 25 22 21 22 23 22 22 20 14 11 15 20 22 25 28 28 29 31 33 27 20 17 14 11 11 14 14 8 9 14 16 19 21 20 17 19 22 22 21 18 18 22 20 21 25 24 27 28 25 27 29 30 33 37 36 31 29 25 21 17 15 15 13 15 20 20 26 27 16 18 25 25 24 25 27 32 33 35 37 37 37 36 39
23 22 21 21 23 25 24 21 23 24 22 20 19 16 16 20 22 21 23 26 26 28 30 29 20 14 11 9 8 7 9 11 8 9 11 12 15 18 18 15 17 20 23 25 22 16 17 17 20 25 26 28 28 25 26 29 29 32 36 34 31 27 24 22 15 8 11 11 13 22 24 23 22 17 19 23 25 27 26 27 31 31 34 36 36 36 35 37
23 22 19 19 22 25 25 22 23 25 22 21 21 18 17 20 23 23 24 24 26 28 28 24 17 13 10 7 7 5 5 7 5 7 10 11 10 12 15 14 14 19 20 21 20 14 14 15 19 27 28 27 29 27 26 29 29 30 33 32 30 25 21 22 16 10 12 10 10 20 24 23 22 18 21 25 25 26 28 28 29 31 33 34 34 35 34 36
25 22 19 20 24 26 25 23 24 24 24 23 19 16 17 22 24 23 21 24 29 29 27 23 15 11 9 9 9 7 5 5 5 6 7 9 7 7 12 12 12 17 18 19 19 16 13 12 15 26 29 26 29 31 27 28 30 30 31 32 32 25 21 22 18 14 15 10 10 16 16 18 24 22 21 25 26 26 29 29 30 31 32 32 33 34 35 37
26 20 18 22 25 25 25 24 22 23 25 23 17 19 24 24 24 24 22 27 32 28 26 24 16 11 11 10 10 8 6 5 6 5 3 6 6 6 10 11 11 17 17 14 15 15 12 11 13 25 30 26 28 31 28 27 31 31 31 33 33 27 22 20 18 19 18 12 9 11 10 15 23 23 20 22 25 27 29 29 30 30 31 32 33 34 37 39
26 17 16 22 24 24 24 24 23 24 26 23 18 23 27 24 24 27 27 30 32 27 24 24 16 10 11 10 10 9 8 6 4 3 3 7 7 4 8 11 11 14 15 12 13 12 11 11 14 24 29 25 25 27 26 26 29 30 30 32 32 28 24 17 13 18 22 17 12 10 9 13 20 23 22 21 23 26 27 28 28 29 31 33 34 36 38 39
26 17 15 20 23 23 22 20 22 23 26 25 21 23 25 22 23 27 28 29 31 29 26 24 19 11 8 9 9 8 7 6 4 3 3 6 6 4 5 13 12 10 12 12 12 11 9 10 16 23 23 22 22 22 23 25 27 26 27 30 31 28 26 19 12 16 21 20 19 16 10 8 13 20 22 19 20 24 25 26 26 28 30 32 35 36 36 36
27 20 20 24 23 22 20 17 16 17 21 24 23 22 20 18 22 27 26 26 29 30 26 23 20 12 5 5 7 7 5 4 2 1 3 6 5 3 4 12 11 8 9 8 9 11 9 9 17 21 19 20 21 22 22 23 25 26 25 28 30 29 27 22 16 16 17 18 18 14 9 7 10 15 18 17 19 21 23 25 25 26 28 29 32 32 30 33
27 20 22 28 26 20 17 16 16 17 20 23 24 23 19 18 24 27 26 25 27 27 23 21 22 14 4 3 6 6 5 4 0 2 4 5 5 3 6 11 10 9 8 5 6 8 5 6 14 17 15 16 19 19 21 23 25 26 26 27 29 29 27 22 17 13 13 15 14 9 8 11 12 14 16 16 19 20 20 23 24 25 28 29 29 28 28 30
27 18 18 28 27 22 21 22 22 22 22 23 24 22 20 23 25 25 27 26 25 26 24 20 23 16 3 3 5 4 3 2 1 3 5 5 4 5 9 11 12 10 8 6 4 3 2 4 10 12 11 11 12 14 19 23 24 25 27 27 25 26 26 23 18 14 13 15 16 10 7 12 14 15 16 16 18 19 18 20 21 22 25 26 27 28 29 28
27 18 20 27 23 20 23 23 22 22 22 22 22 22 24 27 28 28 29 26 21 25 26 22 24 20 8 3 5 2 2 2 1 3 6 5 4 7 10 12 13 10 8 8 6 0 6 6 4 4 8 11 14 18 21 21 22 24 27 27 24 24 26 25 21 18 15 16 18 13 7 12 15 16 17 16 16 16 16 18 19 21 24 27 28 30 29 27
24 20 25 28 20 17 20 18 18 19 19 18 20 24 27 28 29 30 31 27 21 22 26 25 27 24 11 3 4 2 2 3 3 4 6 5 4 8 12 13 13 11 11 9 6 3 6 5 3 2 3 6 9 16 23 23 21 22 24 27 27 25 26 27 25 21 16 13 16 15 9 12 16 17 16 15 14 12 12 14 17 20 24 27 29 31 30 27
23 22 26 27 21 20 21 19 17 18 18 17 18 24 27 26 28 30 31 31 23 20 24 26 27 24 9 2 1 0 4 5 6 7 5 4 7 11 13 13 12 12 12 9 6 6 7 5 5 4 3 2 1 7 18 23 22 21 22 24 27 27 26 28 26 22 18 14 15 17 13 11 14 18 17 14 11 10 11 12 14 17 21 26 29 31 30 28
23 23 25 25 23 23 22 18 18 18 18 19 21 24 26 26 27 28 29 30 27 22 22 23 27 25 7 6 3 2 6 5 6 8 6 5 8 11 13 12 10 11 12 9 7 8 8 6 5 4 3 5 5 5 11 18 20 22 23 22 25 27 25 26 25 22 20 17 13 14 15 15 13 14 16 13 9 8 9 9 8 10 14 21 28 28 28 28
23 24 25 25 24 24 20 16 18 19 17 19 24 25 24 24 27 28 26 26 27 26 23 22 29 25 6 6 2 4 8 5 4 7 7 7 8 10 11 10 8 10 12 9 7 7 7 6 4 3 4 6 9 9 9 14 17 20 22 22 24 25 24 24 25 23 21 20 16 14 17 20 16 10 11 12 8 6 6 4 3 3 4 12 21 25 26 26
23 24 27 27 27 27 22 16 18 19 17 19 23 25 25 24 26 28 26 23 22 24 24 25 29 25 9 5 1 6 10 7 6 6 6 8 8 7 8 7 5 9 12 10 7 6 7 6 5 5 6 6 8 9 9 11 13 16 20 23 24 25 25 25 26 25 23 23 21 18 19 20 15 9 8 10 6 3 4 4 2 1 1 6 15 22 25 25
22 23 26 27 28 28 23 18 18 17 17 19 22 26 27 25 23 24 26 24 21 20 22 23 26 24 16 11 4 6 11 9 9 7 5 8 8 7 7 7 5 8 11 10 7 6 6 8 9 6 4 5 6 6 7 10 12 15 21 24 24 25 25 24 26 26 25 24 22 22 22 17 12 9 8 7 4 3 4 5 2 4 3 4 12 19 23 24
Wind_Direction
319 311 300 291 282 277 275 276 279 283 287 290 293 297 298 300 300 300 300 298 297 296 295 294 293 292 292 290 287 283 281 278 275 271 265 261 259 257 254 252 252 251 249 246 244 243 243 242 240 238 236 235 235 235 233 227 224 225 224 230 233 234 234 233 231 232 234 235 233 232 227 222 222 225 228 235 237 239 246 244 233 238 244 252 256 244 231 235
325 315 303 283 265 264 267 271 276 280 284 288 293 296 298 299 299 299 298 298 297 296 295 293 292 290 289 289 286 285 283 280 279 273 268 267 263 258 256 253 252 251 249 246 244 242 240 240 240 239 236 234 234 234 233 227 221 221 222 230 233 233 234 233 233 234 239 237 234 235 227 220 227 234 232 233 236 238 239 237 237 239 246 250 249 249 245 240
330 318 301 273 261 270 274 280 282 285 288 291 295 297 300 300 300 300 298 298 297 296 296 294 293 290 289 287 285 284 281 281 280 274 270 270 265 263 261 256 252 250 248 245 243 241 239 236 234 235 236 234 233 232 231 226 221 222 224 231 233 232 233 234 235 236 238 239 238 236 226 221 233 237 229 231 235 234 236 236 238 234 243 251 246 250 250 242
337 325 303 281 281 289 291 294 295 296 298 299 302 303 305 305 304 304 302 302 300 299 298 295 294 291 290 287 285 284 280 281 279 273 272 272 269 267 264 260 255 250 247 245 242 240 239 236 231 227 228 231 230 227 227 222 220 223 225 231 233 232 234 234 234 237 237 238 239 237 235 233 235 231 224 229 237 235 234 234 239 234 241 253 249 253 249 239
343 332 315 300 297 301 302 303 303 303 303 304 306 307 308 308 308 307 306 305 304 303 300 298 295 291 289 285 284 283 282 284 276 271 272 271 270 268 265 261 257 251 246 244 242 240 238 235 231 226 223 226 226 223 224 221 220 225 227 231 234 232 235 235 234 236 236 237 238 236 237 236 235 232 225 227 235 238 233 235 248 239 236 242 233 245 252 235
346 334 321 311 306 305 305 305 305 304 305 305 306 307 308 307 307 306 305 304 303 301 299 297 295 292 290 286 283 280 277 274 268 270 270 269 268 266 263 261 257 253 248 244 241 239 236 232 228 226 224 223 223 221 224 222 219 226 230 232 234 233 234 235 234 234 235 236 236 234 234 234 235 236 228 227 232 237 234 238 254 232 224 232 225 245 257 235
347 336 322 313 307 303 302 302 302 302 303 304 305 306 305 305 304 302 301 301 300 298 296 294 293 291 290 287 285 279 274 266 265 269 269 267 266 263 262 261 258 255 250 245 240 238 235 231 227 225 224 224 223 223 224 223 220 225 231 232 233 234 234 234 234 235 234 234 236 235 231 230 233 235 232 230 232 234 232 236 243 221 215 235 242 264 261 238
344 336 325 316 310 305 302 302 302 302 303 304 305 304 304 304 302 301 302 301 299 297 294 293 291 289 289 287 284 281 277 269 266 269 268 265 265 263 262 261 258 255 251 247 241 237 233 230 227 222 222 224 224 225 223 223 224 226 230 232 233 234 234 234 234 235 235 234 235 233 228 228 231 235 237 234 232 232 230 234 237 230 227 236 255 270 260 241
342 337 331 324 318 313 309 308 307 306 306 305 305 305 306 305 305 306 305 303 301 298 296 294 292 291 288 286 283 282 277 271 269 269 265 262 263 264 262 259 257 253 250 247 242 237 231 229 226 220 221 226 227 227 224 223 225 227 230 232 234 234 232 233 235 233 233 234 233 228 226 229 233 237 241 236 231 231 231 230 232 236 236 241 256 261 252 244
343 338 334 329 324 320 316 313 311 309 308 309 309 309 309 309 309 309 307 305 302 301 299 297 295 292 289 286 283 278 274 275 273 268 264 262 261 262 261 257 254 251 247 244 241 237 229 224 224 221 224 227 228 229 225 224 227 228 232 234 234 235 232 231 233 231 230 232 230 225 226 231 234 237 239 234 229 229 231 228 227 236 241 249 254 251 247 244
342 338 335 331 326 322 318 315 314 313 313 313 312 310 310 311 311 310 308 307 305 304 302 299 297 292 289 285 280 278 276 276 272 269 268 264 259 259 259 255 251 247 243 240 238 236 230 220 213 217 227 227 226 231 229 226 230 230 232 237 234 235 231 226 230 232 228 228 227 226 230 232 233 235 234 232 232 230 229 223 225 237 244 253 253 248 247 245
344 341 338 334 330 326 322 320 319 319 318 316 313 311 312 313 312 309 309 308 308 307 305 303 298 293 289 283 280 281 278 272 269 270 270 265 259 256 255 253 247 242 239 238 235 232 230 220 208 209 215 225 226 229 232 226 228 230 228 234 232 231 229 224 229 230 221 222 223 225 232 234 232 233 231 231 233 229 227 225 230 243 243 246 248 243 246 248
347 345 342 340 337 333 329 329 327 325 322 319 316 316 317 316 314 313 313 314 312 311 309 304 298 294 289 285 286 284 275 268 267 268 266 263 258 253 251 251 247 241 237 235 232 229 228 220 213 211 201 213 228 223 228 224 223 226 224 228 231 230 229 223 224 222 218 221 220 218 229 234 231 231 231 231 228 225 232 232 232 243 241 238 244 240 245 253
349 347 345 343 341 339 338 337 335 330 325 322 320 320 320 319 319 319 320 320 317 314 309 304 300 296 290 289 289 281 273 268 265 263 261 258 255 252 251 250 246 241 236 233 232 230 230 224 219 217 207 207 222 223 231 229 222 223 222 226 228 229 229 220 217 216 217 219 214 213 229 235 231 230 230 228 225 224 232 233 226 234 238 241 247 243 245 255
348 347 345 344 343 341 341 340 336 332 327 325 323 321 321 322 323 323 323 322 318 312 308 304 301 296 292 292 289 280 275 270 265 260 256 255 253 250 247 247 245 242 238 234 233 232 233 228 221 222 216 210 212 223 232 231 222 217 218 221 220 224 229 218 213 213 213 215 211 213 229 235 232 229 229 225 223 222 225 230 229 230 238 245 249 245 245 255
346 346 345 344 343 340 339 339 336 333 331 328 325 322 323 324 323 322 321 321 317 311 308 305 301 297 292 290 290 287 282 274 266 260 255 252 250 247 246 247 246 244 243 237 234 234 232 229 223 224 222 217 216 220 226 226 218 213 215 219 217 219 224 218 215 214 212 214 212 214 226 234 231 230 230 223 221 221 219 225 230 228 233 243 246 243 243 250
344 344 344 343 342 340 339 339 337 335 333 330 327 324 324 323 322 320 319 322 317 310 307 302 298 297 295 292 289 285 279 273 267 262 255 252 250 248 246 246 243 240 243 241 237 235 231 227 223 222 221 218 216 216 220 219 212 208 211 219 220 218 220 220 217 214 210 212 214 216 225 231 230 229 227 225 222 218 213 216 225 224 225 237 241 241 240 242
342 343 344 344 343 341 340 339 338 337 334 333 330 326 324 319 318 316 318 325 319 312 313 307 298 294 297 296 284 274 273 268 263 258 254 253 250 246 242 239 237 231 233 241 238 233 229 223 221 221 218 216 214 212 217 216 210 208 208 214 221 220 219 220 218 213 205 209 215 218 224 227 229 228 226 228 220 210 209 215 224 222 221 230 235 236 235 233
342 342 343 345 344 341 341 340 338 337 335 334 330 327 322 315 320 321 324 334 323 315 317 306 297 290 284 277 269 272 277 266 259 261 261 259 253 246 242 237 235 230 225 231 234 228 221 217 216 218 216 213 213 212 216 218 215 215 214 216 221 221 223 221 221 217 205 207 215 218 223 225 225 226 225 226 213 204 209 215 220 218 217 229 237 238 235 228
342 342 343 344 344 342 341 340 339 338 336 335 329 328 323 320 329 326 321 329 323 308 304 292 284 282 282 280 272 264 266 265 264 267 266 261 254 247 244 240 235 234 227 222 228 225 215 215 215 215 215 214 215 215 218 221 222 224 224 225 225 224 227 223 220 219 208 207 214 217 223 224 222 222 221 223 213 206 211 213 216 216 216 224 233 237 232 222
341 343 343 343 343 342 341 340 340 339 337 335 331 330 328 325 328 317 310 317 317 302 301 291 276 276 279 281 276 260 258 264 265 266 260 252 248 244 244 240 229 229 231 223 225 225 216 220 221 217 218 218 218 218 219 224 226 228 230 227 225 224 225 222 217 216 208 208 215 218 221 222 221 221 218 219 216 211 213 213 214 215 218 220 223 233 230 217
341 343 342 342 342 342 340 340 341 340 337 334 332 330 326 326 324 319 314 315 319 309 302 296 284 282 281 281 276 259 257 262 262 264 257 244 240 239 236 234 228 226 230 226 224 223 220 224 225 221 222 221 221 221 221 225 225 228 232 227 226 225 222 220 217 214 207 207 214 217 218 220 222 221 217 217 216 214 215 216 216 217 222 220 219 230 228 215
342 342 342 341 341 340 339 339 340 340 338 333 331 328 326 326 322 322 318 315 321 318 303 309 305 294 288 282 275 259 256 256 253 255 249 241 238 236 226 224 230 230 228 225 221 222 224 227 226 223 224 222 222 222 220 223 222 225 228 224 225 226 217 214 213 210 206 207 212 213 215 221 221 218 217 217 215 213 213 216 220 222 223 220 220 228 226 216
342 342 341 340 340 340 337 338 341 340 339 335 331 330 328 325 322 324 321 316 321 318 298 322 315 295 284 270 269 262 246 245 241 229 243 248 241 234 230 224 232 236 231 228 226 228 231 232 228 224 224 222 221 221 219 219 220 222 223 218 222 223 214 211 207 202 204 208 210 212 214 218 217 215 215 215 212 211 212 215 220 223 221 218 220 226 226 218
341 341 340 339 340 339 336 337 341 342 341 338 334 332 328 325 325 325 323 321 322 310 285 322 325 300 286 266 261 254 240 248 246 229 242 254 240 227 234 231 233 238 235 232 232 234 235 233 230 227 225 221 220 220 217 215 217 219 218 215 219 221 214 211 204 198 203 208 206 209 215 215 212 213 213 211 209 209 211 215 218 219 216 213 217 222 222 217
340 340 339 338 338 339 337 337 341 344 343 340 336 331 325 326 329 330 329 321 308 270 259 307 327 309 298 271 253 250 255 260 253 240 244 251 235 220 231 233 233 238 238 237 237 236 237 234 230 229 225 221 220 220 217 214 216 218 213 212 218 221 213 208 205 202 206 210 205 206 216 219 208 210 211 208 207 208 210 213 215 214 210 209 214 219 218 213
339 339 338 337 337 337 337 338 340 344 345 342 336 331 329 330 333 334 333 309 266 232 237 273 290 284 281 264 254 247 254 262 255 250 244 247 237 220 229 233 231 238 237 237 240 234 233 234 229 225 224 222 219 217 215 212 216 219 210 207 215 219 213 209 210 209 209 214 210 205 214 227 217 208 207 207 207 207 209 211 211 210 209 209 213 218 217 211
338 338 338 337 337 336 336 338 341 344 347 347 340 334 333 331 332 335 333 294 262 240 251 272 280 280 268 255 257 250 248 263 266 252 231 235 237 219 228 235 235 241 239 236 240 234 229 231 226 219 220 224 220 214 212 210 215 220 209 205 213 216 216 216 215 215 212 214 215 204 207 223 225 210 204 204 207 207 208 209 207 206 208 211 213 215 216 209
337 338 337 336 336 335 334 337 342 345 348 350 346 341 335 330 331 331 296 251 268 269 273 273 276 288 277 250 253 254 254 257 255 250 237 236 242 230 230 236 242 247 244 240 241 238 232 231 227 218 215 221 221 213 209 209 213 215 207 207 212 213 220 225 216 213 212 214 220 207 201 209 222 214 204 199 205 208 207 207 207 205 206 209 210 212 212 208
337 337 337 337 336 335 333 336 343 347 349 350 350 345 338 332 329 321 258 245 278 284 275 272 274 275 264 252 254 257 258 254 244 246 246 238 244 245 235 234 243 248 245 240 240 238 236 235 228 218 214 218 220 212 206 208 211 209 207 208 207 209 218 226 219 214 212 214 223 215 203 204 217 216 209 203 205 207 205 204 205 204 203 205 207 209 209 207
337 337 337 337 337 336 336 339 345 348 348 349 349 346 342 333 312 280 265 280 290 280 265 269 275 259 258 265 264 264 264 262 252 244 244 239 238 240 235 231 233 239 241 237 237 237 235 237 228 215 213 214 216 212 206 207 208 205 207 207 202 203 209 216 222 220 216 212 219 218 208 206 214 215 212 210 207 205 205 205 203 201 199 200 204 208 207 206
337 337 338 337 338 337 335 338 343 346 348 347 344 346 347 329 267 256 283 301 301 279 272 275 271 271 278 276 271 272 269 266 256 242 242 243 239 232 226 225 220 224 233 230 231 233 229 230 225 214 211 209 212 213 207 206 203 202 206 204 197 197 199 205 216 216 218 219 215 214 209 207 215 217 214 212 207 203 205 207 205 200 197 198 203 207 207 208
336 337 338 337 339 338 335 337 342 344 347 346 341 344 346 294 273 292 298 302 291 283 293 290 281 284 288 280 278 279 270 267 258 242 237 238 241 237 228 224 220 225 235 229 227 227 221 222 220 212 208 206 210 211 206 201 196 200 205 199 195 197 188 194 203 203 215 222 215 211 209 210 217 219 217 214 207 203 205 207 206 202 198 198 201 205 207 207
335 337 338 338 340 339 335 335 341 344 345 346 344 344 331 264 299 316 308 303 295 292 292 288 286 292 294 285 281 275 260 262 258 245 243 239 239 238 230 224 221 226 235 237 236 224 209 211 212 207 203 201 206 211 206 196 192 198 201 196 198 201 189 187 193 196 205 213 212 208 206 212 217 216 214 215 211 204 206 206 203 202 200 198 199 203 206 205
335 336 336 338 341 342 338 336 342 344 344 347 346 339 305 285 317 321 315 312 310 305 299 293 290 293 297 292 283 268 252 256 251 240 246 241 234 233 229 223 217 220 223 235 247 223 205 205 205 202 201 197 200 207 206 196 192 196 196 197 203 200 191 192 198 205 207 207 208 205 205 213 217 212 204 210 211 202 202 203 200 199 198 197 198 199 200 202
337 335 336 340 343 344 343 339 342 344 343 344 342 328 303 314 327 322 317 319 318 314 310 306 299 291 293 294 283 260 248 255 254 245 249 240 230 228 227 222 214 215 216 224 239 220 203 204 197 194 199 200 198 201 203 199 192 192 195 201 205 199 194 196 201 209 212 210 203 201 207 211 212 209 198 204 207 197 195 199 198 197 196 196 198 196 196 202
340 335 335 340 343 345 343 339 343 344 340 338 334 325 320 330 336 328 319 317 313 312 309 306 299 289 290 290 287 268 250 259 253 241 248 238 229 225 224 226 217 213 217 226 237 221 198 200 193 191 197 198 198 198 200 203 197 191 194 198 201 204 202 200 202 199 202 211 198 197 209 209 204 203 198 203 204 195 193 198 197 196 196 196 197 195 194 202
345 338 337 341 343 346 343 338 342 343 340 340 335 326 325 331 336 332 321 313 312 314 310 300 289 288 290 284 304 314 263 262 252 236 231 217 219 219 215 218 211 212 219 226 239 237 209 201 192 192 195 192 195 200 202 209 207 197 194 196 201 207 203 200 205 193 190 207 199 196 208 212 208 201 192 197 200 192 194 198 196 196 195 194 195 193 191 200
349 343 346 349 346 344 341 337 339 341 344 346 337 326 326 326 332 335 327 321 323 321 315 310 298 286 288 282 298 310 258 247 258 251 222 203 217 218 207 209 206 212 213 212 233 249 231 210 188 188 190 186 193 202 203 204 204 200 199 200 205 210 204 201 207 200 194 201 200 196 203 212 212 202 187 193 198 194 195 197 196 196 194 192 193 191 190 200
353 349 347 346 340 337 338 335 335 341 347 348 338 333 332 324 332 346 341 332 332 326 320 322 313 282 281 285 295 297 263 251 259 256 231 212 228 213 201 207 208 210 205 206 237 251 233 219 189 180 184 186 193 200 201 200 198 198 202 202 203 207 207 207 210 207 203 201 198 197 201 213 213 202 190 196 200 197 196 196 196 195 193 191 190 190 192 201
357 356 342 337 335 336 335 333 338 344 347 348 337 330 331 326 334 347 346 340 340 338 333 334 331 299 278 278 291 296 278 267 260 249 245 225 227 226 206 202 198 202 203 214 236 234 220 217 187 174 179 187 193 195 198 203 199 194 197 199 198 201 203 204 209 208 208 205 200 203 210 208 207 201 195 195 198 197 195 194 194 192 191 190 192 197 202 205
359 356 346 343 340 337 335 338 344 340 337 340 332 326 330 334 338 342 344 344 345 349 348 341 341 335 297 271 275 292 288 277 262 245 242 215 219 296 235 197 190 201 209 218 224 217 219 215 184 174 179 185 190 193 196 203 202 196 197 197 195 199 202 201 199 198 203 204 199 205 212 192 193 199 195 190 191 195 195 193 192 193 193 196 200 204 206 207
356 351 355 0 353 342 340 344 340 325 327 335 336 335 337 338 339 338 343 346 345 353 358 351 345 344 323 280 269 279 288 281 272 229 224 202 204 283 211 186 191 214 219 221 217 210 221 210 178 170 176 179 182 191 195 200 204 201 199 198 197 200 201 204 204 194 200 204 197 202 204 154 156 183 190 190 188 189 193 192 192 193 192 198 205 206 205 207
357 354 353 357 359 356 348 341 332 326 331 335 339 346 345 341 340 337 342 348 348 353 2 2 356 347 313 286 278 283 307 297 282 143 195 190 192 201 176 182 195 209 219 231 214 205 218 203 175 167 172 177 178 185 190 196 205 206 201 199 201 203 203 210 214 201 207 209 196 202 202 159 149 171 184 191 186 183 187 189 192 195 193 196 200 201 205 210
2 7 350 346 351 359 356 349 343 336 329 329 338 347 343 339 340 339 344 352 353 354 356 1 4 0 342 296 295 307 345 318 137 150 187 172 180 189 175 187 197 201 230 245 188 176 277 233 189 174 172 171 176 185 186 189 200 206 204 201 200 201 203 210 213 204 208 206 192 196 187 149 146 165 178 185 183 180 181 183 188 192 191 193 193 195 203 206
3 2 352 349 349 355 357 349 337 325 321 326 337 344 339 336 339 343 350 355 355 355 355 356 4 9 16 342 320 320 297 267 145 155 188 178 194 196 182 191 194 196 233 228 178 161 302 273 237 193 181 178 184 191 189 187 193 199 202 202 200 201 203 207 210 206 205 203 197 196 158 137 151 161 167 175 178 178 181 184 188 188 184 183 186 195 204 202
1 349 351 358 356 355 355 342 322 318 324 327 329 333 334 335 339 346 355 359 355 352 354 354 360 7 13 347 325 319 218 226 178 167 187 191 195 183 180 192 197 203 222 216 196 281 288 254 238 247 215 207 200 193 189 189 191 194 198 200 201 206 207 207 211 210 207 206 203 194 157 140 155 154 152 157 159 164 174 180 188 191 191 194 194 198 203 201
355 348 351 358 357 351 348 343 334 331 333 330 323 327 332 337 343 347 353 358 355 350 351 350 355 1 8 168 212 204 175 177 173 174 185 192 176 169 176 191 203 212 217 212 222 264 281 262 236 232 226 222 205 182 188 191 191 192 197 199 201 205 208 208 210 209 206 206 202 192 174 154 153 152 152 152 142 143 150 157 174 184 194 206 206 200 198 200
347 348 351 355 355 349 345 343 339 336 337 330 323 328 337 342 346 348 351 356 355 353 352 353 357 1 7 165 152 157 167 166 177 187 200 194 172 171 179 189 203 212 212 217 235 252 270 277 258 248 234 204 195 190 194 197 197 197 198 200 201 202 205 209 210 207 205 209 211 202 194 189 175 157 157 160 148 141 139 135 156 174 189 206 209 200 197 205
345 348 350 352 354 356 355 348 338 337 336 328 326 335 346 348 347 348 352 357 357 353 354 3 5 5 28 152 144 169 174 182 193 195 204 197 182 181 183 187 199 205 207 221 244 253 260 280 298 276 252 224 212 209 203 201 203 204 202 200 201 202 205 209 211 210 210 214 226 232 215 205 198 174 167 176 174 167 168 156 145 160 182 202 208 204 201 207
345 348 348 349 356 2 3 351 341 339 335 330 333 341 348 350 350 348 347 357 1 349 346 358 359 357 18 84 103 193 192 201 199 197 204 197 192 189 188 195 211 207 208 221 243 254 257 275 286 254 234 221 203 206 217 214 212 214 209 203 202 203 206 208 209 211 211 213 223 232 224 209 200 190 188 196 200 208 214 222 249 288 211 193 201 204 204 207
344 348 347 348 355 2 1 351 344 340 337 338 339 340 342 345 351 348 341 351 5 353 342 349 350 349 3 18 9 202 199 194 189 199 210 205 212 220 216 221 232 217 210 213 233 251 260 271 278 280 267 229 193 198 227 222 217 221 215 208 205 204 205 207 208 209 211 213 218 223 223 214 193 177 183 198 230 259 197 190 265 308 293 217 194 199 205 209
Height
3108 3107 3106 3106 3106 3106 3105 3105 3105 3105 3105 3104 3104 3104 3103 3103 3102 3102 3102 3101 3101 3100 3100 3099 3099 3099 3098 3097 3096 3096 3096 3096 3095 3095 3095 3096 3098 3098 3099 3100 3102 3104 3106 3109 3111 3113 3115 3118 3122 3126 3129 3131 3133 3136 3141 3144 3148 3150 3149 3145 3140 3139 3140 3143 3146 3147 3148 3150 3151 3152 3154 3156 3158 3159 3159 3160 3161 3162 3163 3163 3164 3164 3164 3164 3161 3162 3164 3165
3107 3106 3105 3105 3105 3105 3105 3105 3104 3104 3104 3103 3103 3103 3102 3102 3101 3101 3100 3100 3099 3099 3098 3097 3097 3097 3097 3096 3094 3094 3094 3093 3093 3092 3092 3094 3094 3094 3095 3097 3098 3100 3102 3104 3106 3108 3111 3113 3117 3120 3123 3126 3128 3131 3135 3139 3143 3143 3142 3138 3133 3135 3138 3142 3145 3146 3147 3148 3149 3150 3150 3152 3155 3157 3158 3158 3159 3161 3161 3162 3163 3163 3162 3161 3161 3162 3163 3164
3106 3105 3105 3105 3105 3105 3104 3104 3104 3103 3103 3102 3102 3101 3101 3100 3099 3099 3098 3098 3097 3096 3096 3095 3095 3095 3095 3094 3092 3092 3091 3091 3090 3087 3090 3091 3091 3091 3093 3094 3095 3097 3098 3099 3102 3104 3106 3109 3113 3115 3118 3120 3123 3127 3129 3134 3137 3136 3136 3131 3127 3133 3138 3140 3142 3144 3146 3147 3148 3149 3148 3148 3151 3154 3155 3156 3157 3158 3159 3160 3161 3162 3161 3159 3160 3161 3161 3162
3105 3104 3104 3104 3104 3104 3103 3103 3102 3102 3101 3101 3100 3099 3099 3098 3097 3096 3095 3095 3094 3094 3093 3092 3092 3092 3092 3091 3090 3089 3089 3090 3086 3084 3088 3088 3088 3089 3090 3091 3092 3093 3094 3095 3097 3099 3102 3105 3108 3111 3113 3115 3118 3122 3124 3128 3130 3129 3129 3123 3125 3134 3135 3136 3140 3142 3144 3145 3146 3147 3147 3146 3148 3151 3152 3153 3154 3155 3157 3158 3159 3160 3159 3157 3159 3160 3160 3161
3104 3104 3104 3103 3103 3103 3102 3102 3101 3100 3100 3099 3098 3097 3096 3095 3094 3093 3092 3092 3091 3091 3090 3089 3089 3088 3089 3088 3087 3086 3087 3088 3082 3081 3085 3085 3086 3087 3087 3089 3089 3090 3091 3092 3093 3095 3098 3101 3104 3106 3108 3110 3114 3117 3117 3121 3125 3124 3122 3121 3126 3131 3131 3133 3138 3139 3141 3143 3144 3144 3145 3145 3146 3148 3148 3150 3151 3152 3155 3157 3157 3158 3156 3154 3157 3158 3158 3159
3104 3104 3103 3103 3102 3102 3101 3100 3100 3099 3098 3097 3096 3095 3095 3093 3092 3091 3090 3089 3088 3087 3086 3086 3085 3084 3085 3084 3084 3084 3084 3085 3079 3078 3082 3082 3083 3084 3084 3086 3086 3087 3088 3089 3090 3091 3094 3097 3099 3101 3103 3106 3109 3111 3113 3117 3121 3120 3118 3119 3123 3126 3128 3131 3135 3136 3139 3140 3140 3141 3143 3145 3146 3145 3146 3147 3148 3151 3154 3156 3155 3156 3155 3151 3153 3156 3157 3158
3104 3104 3103 3103 3102 3101 3100 3100 3099 3098 3097 3096 3095 3094 3093 3091 3090 3089 3088 3087 3086 3085 3083 3082 3081 3081 3081 3081 3081 3080 3080 3081 3076 3075 3079 3079 3079 3080 3082 3083 3084 3085 3085 3086 3087 3088 3090 3093 3094 3097 3100 3102 3104 3107 3110 3114 3116 3115 3114 3115 3118 3122 3125 3129 3132 3133 3135 3136 3136 3138 3141 3143 3143 3143 3144 3144 3146 3149 3151 3154 3154 3154 3154 3151 3151 3154 3155 3156
3104 3104 3103 3102 3101 3100 3099 3098 3097 3096 3095 3093 3092 3091 3090 3089 3087 3086 3085 3084 3083 3082 3080 3079 3079 3078 3078 3077 3077 3077 3077 3076 3073 3073 3075 3075 3075 3077 3078 3080 3081 3082 3083 3083 3084 3085 3087 3089 3091 3094 3097 3098 3101 3104 3107 3111 3111 3109 3109 3111 3115 3118 3121 3125 3128 3130 3131 3132 3134 3135 3136 3139 3140 3141 3142 3142 3144 3147 3149 3151 3151 3151 3152 3150 3150 3152 3153 3155
3104 3103 3102 3101 3100 3099 3097 3096 3095 3093 3092 3091 3089 3088 3086 3085 3084 3082 3081 3080 3079 3078 3077 3076 3075 3075 3074 3074 3073 3073 3073 3072 3071 3070 3071 3072 3072 3073 3075 3076 3077 3079 3080 3080 3081 3082 3084 3086 3088 3091 3094 3096 3099 3101 3104 3106 3104 3104 3105 3108 3112 3114 3118 3122 3124 3126 3128 3130 3131 3132 3133 3135 3138 3139 3138 3139 3142 3144 3146 3149 3148 3146 3147 3149 3150 3151 3152 3153
3103 3102 3101 3100 3098 3097 3095 3094 3092 3091 3090 3088 3087 3085 3083 3082 3081 3079 3078 3077 3076 3075 3074 3073 3072 3072 3071 3071 3070 3070 3070 3068 3067 3067 3067 3068 3070 3070 3071 3073 3074 3076 3077 3077 3078 3079 3081 3083 3086 3089 3091 3093 3096 3097 3100 3100 3100 3102 3104 3106 3108 3110 3114 3118 3119 3121 3124 3126 3127 3128 3129 3131 3135 3136 3133 3135 3139 3141 3143 3145 3144 3142 3144 3148 3148 3149 3150 3151
3102 3101 3100 3098 3096 3095 3093 3092 3090 3089 3087 3086 3084 3082 3081 3080 3078 3077 3075 3074 3073 3072 3071 3070 3070 3069 3068 3068 3066 3066 3067 3066 3064 3063 3064 3065 3066 3067 3067 3069 3070 3072 3073 3074 3075 3076 3077 3079 3083 3086 3088 3089 3091 3093 3094 3096 3098 3100 3102 3103 3104 3106 3109 3112 3114 3116 3119 3121 3123 3126 3127 3129 3132 3129 3127 3132 3136 3138 3140 3141 3140 3139 3144 3146 3144 3146 3147 3148
3101 3099 3098 3096 3095 3093 3092 3090 3088 3087 3085 3084 3082 3081 3079 3078 3076 3075 3073 3072 3071 3070 3069 3068 3067 3066 3065 3064 3063 3064 3065 3063 3060 3060 3061 3062 3063 3064 3064 3065 3067 3068 3069 3070 3071 3073 3074 3076 3079 3081 3084 3086 3087 3089 3090 3092 3095 3096 3099 3099 3099 3102 3103 3105 3109 3111 3113 3115 3119 3125 3124 3123 3123 3120 3123 3131 3134 3134 3135 3136 3137 3137 3143 3145 3141 3143 3144 3145
3099 3098 3096 3095 3093 3091 3090 3088 3087 3085 3083 3082 3080 3078 3077 3075 3074 3072 3071 3070 3068 3067 3066 3065 3063 3063 3061 3060 3060 3061 3061 3059 3058 3058 3058 3059 3060 3060 3061 3061 3063 3065 3066 3067 3068 3069 3070 3072 3074 3075 3079 3082 3084 3086 3086 3088 3091 3092 3095 3095 3096 3097 3095 3099 3104 3106 3109 3112 3117 3121 3117 3112 3113 3115 3122 3128 3130 3131 3130 3132 3135 3135 3139 3142 3139 3140 3141 3143
3098 3096 3095 3093 3091 3090 3088 3087 3085 3083 3081 3080 3078 3076 3074 3072 3071 3069 3068 3067 3066 3064 3062 3061 3060 3059 3057 3056 3058 3058 3057 3056 3055 3055 3056 3056 3057 3058 3058 3059 3060 3061 3062 3063 3064 3065 3066 3068 3071 3072 3074 3076 3080 3083 3084 3085 3086 3089 3091 3091 3092 3091 3088 3093 3099 3100 3104 3107 3112 3116 3109 3104 3108 3113 3119 3124 3124 3127 3127 3128 3132 3132 3135 3138 3137 3137 3138 3140
3097 3095 3094 3092 3090 3088 3087 3085 3083 3081 3079 3077 3075 3073 3072 3070 3068 3066 3065 3064 3063 3061 3059 3058 3057 3056 3054 3053 3053 3053 3053 3052 3052 3052 3053 3053 3054 3055 3056 3056 3057 3058 3059 3060 3061 3062 3064 3066 3068 3069 3071 3073 3076 3079 3081 3082 3083 3085 3085 3084 3085 3085 3085 3090 3093 3094 3098 3103 3108 3110 3102 3098 3105 3111 3116 3120 3120 3122 3124 3125 3129 3131 3131 3134 3135 3135 3135 3137
3096 3094 3093 3091 3089 3087 3085 3083 3081 3079 3077 3075 3073 3071 3069 3067 3066 3064 3063 3062 3060 3058 3057 3055 3054 3053 3051 3050 3050 3050 3049 3049 3049 3049 3050 3051 3051 3052 3053 3053 3054 3055 3056 3057 3058 3059 3061 3063 3065 3066 3069 3072 3074 3076 3078 3078 3078 3079 3079 3078 3079 3080 3082 3085 3087 3088 3094 3099 3102 3102 3095 3094 3102 3108 3113 3116 3115 3118 3120 3121 3126 3128 3128 3129 3132 3133 3133 3135
3095 3093 3092 3090 3088 3086 3084 3081 3079 3077 3075 3073 3071 3069 3067 3065 3063 3062 3061 3060 3058 3055 3054 3053 3051 3050 3049 3048 3047 3047 3047 3046 3046 3047 3048 3048 3049 3050 3050 3051 3052 3053 3053 3054 3055 3056 3058 3060 3062 3064 3066 3068 3071 3073 3074 3071 3071 3073 3074 3074 3074 3075 3077 3080 3082 3083 3089 3093 3095 3095 3091 3092 3100 3105 3109 3112 3112 3113 3115 3118 3122 3124 3125 3125 3128 3131 3131 3132
3094 3092 3090 3088 3086 3084 3082 3080 3077 3075 3072 3070 3068 3066 3064 3063 3061 3059 3058 3058 3055 3053 3051 3049 3049 3049 3048 3046 3045 3045 3045 3043 3043 3044 3044 3045 3046 3047 3048 3048 3049 3050 3052 3052 3052 3054 3056 3058 3060 3062 3063 3064 3066 3068 3066 3063 3065 3066 3067 3068 3068 3070 3072 3075 3078 3080 3084 3087 3089 3090 3087 3090 3098 3102 3105 3108 3108 3109 3110 3114 3118 3121 3122 3121 3124 3128 3128 3129
3093 3091 3089 3087 3084 3082 3080 3078 3075 3073 3070 3068 3066 3064 3062 3060 3058 3055 3054 3055 3052 3051 3051 3048 3046 3047 3046 3045 3044 3045 3043 3040 3041 3042 3042 3043 3044 3045 3046 3046 3047 3048 3050 3051 3051 3051 3053 3056 3057 3057 3058 3058 3060 3061 3060 3061 3063 3064 3064 3064 3065 3068 3069 3071 3075 3078 3080 3083 3084 3084 3084 3087 3093 3097 3102 3104 3103 3104 3108 3112 3114 3117 3119 3118 3120 3123 3125 3126
3092 3090 3087 3085 3083 3080 3078 3076 3073 3071 3068 3066 3064 3063 3061 3058 3056 3054 3051 3052 3051 3048 3049 3048 3044 3042 3042 3043 3043 3043 3041 3038 3038 3041 3041 3041 3042 3043 3044 3044 3045 3046 3047 3049 3049 3049 3051 3052 3051 3051 3053 3054 3056 3057 3059 3061 3063 3063 3064 3064 3065 3067 3067 3069 3073 3075 3077 3078 3078 3080 3082 3086 3089 3093 3099 3099 3098 3100 3105 3108 3111 3113 3115 3116 3117 3119 3122 3124
3091 3089 3086 3084 3082 3079 3077 3074 3072 3069 3066 3064 3062 3061 3059 3057 3056 3054 3051 3050 3051 3047 3045 3044 3042 3040 3039 3040 3040 3039 3037 3036 3037 3038 3038 3039 3039 3040 3041 3042 3044 3044 3044 3046 3048 3049 3049 3047 3047 3048 3050 3052 3054 3056 3058 3060 3062 3062 3062 3061 3061 3063 3064 3066 3069 3071 3073 3074 3075 3078 3081 3083 3085 3088 3094 3096 3095 3096 3101 3104 3107 3110 3112 3114 3114 3116 3119 3121
3090 3088 3085 3083 3080 3078 3075 3073 3071 3068 3065 3063 3061 3059 3058 3056 3054 3052 3048 3046 3047 3045 3041 3040 3039 3037 3036 3036 3035 3034 3034 3034 3035 3036 3036 3036 3036 3037 3040 3041 3041 3042 3043 3044 3045 3046 3045 3043 3044 3047 3049 3050 3053 3054 3056 3058 3059 3060 3059 3057 3056 3058 3061 3064 3065 3068 3069 3070 3072 3075 3077 3079 3082 3085 3088 3092 3091 3092 3097 3101 3104 3106 3109 3111 3111 3113 3116 3117
3089 3086 3084 3082 3079 3076 3074 3072 3069 3067 3064 3061 3059 3058 3056 3054 3052 3050 3046 3042 3041 3041 3038 3037 3036 3035 3034 3034 3033 3031 3032 3033 3034 3035 3034 3033 3034 3035 3037 3039 3039 3040 3041 3041 3041 3041 3039 3039 3042 3044 3046 3048 3050 3052 3053 3055 3056 3057 3055 3053 3055 3056 3057 3059 3061 3063 3065 3067 3070 3073 3075 3076 3079 3081 3084 3086 3087 3089 3093 3097 3100 3103 3105 3108 3109 3110 3112 3113
3087 3085 3083 3080 3078 3075 3072 3070 3068 3065 3063 3060 3057 3056 3055 3052 3050 3048 3045 3040 3037 3037 3036 3035 3034 3033 3032 3032 3031 3030 3031 3031 3032 3034 3031 3030 3033 3034 3034 3036 3037 3037 3037 3038 3038 3037 3036 3037 3039 3041 3043 3046 3047 3048 3050 3051 3052 3053 3052 3053 3055 3054 3053 3055 3057 3061 3065 3066 3068 3071 3071 3071 3073 3075 3078 3081 3083 3085 3089 3092 3096 3099 3102 3104 3106 3108 3109 3110
3086 3084 3081 3079 3077 3074 3071 3069 3067 3064 3061 3059 3056 3054 3053 3051 3049 3046 3043 3039 3036 3035 3034 3033 3032 3031 3030 3030 3029 3029 3029 3029 3029 3031 3029 3028 3031 3032 3033 3034 3034 3034 3034 3035 3035 3034 3034 3036 3037 3039 3041 3043 3044 3044 3045 3047 3049 3049 3049 3051 3053 3052 3051 3053 3054 3058 3062 3062 3064 3067 3064 3062 3066 3069 3071 3076 3079 3081 3084 3087 3090 3093 3097 3100 3102 3104 3106 3107
3085 3083 3080 3078 3075 3073 3070 3067 3065 3063 3060 3057 3056 3054 3052 3050 3048 3045 3042 3039 3036 3035 3033 3032 3031 3030 3029 3028 3028 3028 3028 3027 3027 3027 3026 3026 3027 3029 3031 3032 3031 3030 3031 3033 3032 3031 3031 3033 3034 3036 3038 3039 3040 3041 3042 3045 3046 3045 3046 3050 3052 3051 3050 3051 3052 3054 3056 3057 3059 3062 3059 3057 3060 3063 3067 3071 3074 3077 3080 3083 3086 3089 3092 3095 3097 3100 3102 3104
3084 3082 3079 3077 3074 3072 3070 3067 3064 3062 3059 3057 3054 3052 3050 3048 3047 3045 3043 3040 3035 3034 3032 3031 3030 3029 3028 3028 3026 3027 3027 3025 3024 3024 3024 3024 3024 3026 3027 3028 3029 3027 3028 3030 3028 3027 3028 3029 3031 3033 3035 3036 3036 3036 3039 3043 3043 3042 3045 3050 3051 3050 3049 3050 3051 3050 3053 3056 3057 3059 3060 3056 3054 3058 3063 3067 3070 3073 3075 3078 3080 3083 3086 3090 3094 3096 3099 3101
3083 3081 3078 3076 3073 3071 3068 3066 3064 3061 3059 3056 3053 3051 3049 3048 3046 3044 3045 3041 3033 3031 3031 3029 3028 3026 3026 3026 3024 3024 3024 3024 3023 3022 3021 3022 3022 3023 3024 3025 3026 3025 3026 3027 3023 3023 3025 3025 3027 3029 3031 3032 3032 3033 3037 3040 3041 3041 3045 3049 3051 3051 3050 3050 3050 3049 3051 3054 3051 3052 3057 3054 3051 3054 3058 3062 3065 3067 3069 3072 3075 3078 3082 3086 3090 3093 3095 3098
3082 3080 3077 3075 3072 3070 3067 3065 3063 3061 3058 3055 3053 3050 3048 3047 3045 3044 3045 3041 3032 3029 3030 3027 3025 3024 3024 3023 3022 3022 3021 3021 3022 3021 3019 3020 3020 3021 3021 3022 3023 3023 3023 3023 3021 3021 3022 3023 3025 3026 3027 3028 3030 3032 3035 3038 3040 3042 3044 3047 3049 3051 3051 3049 3047 3047 3049 3049 3045 3046 3051 3050 3048 3050 3052 3055 3057 3059 3063 3068 3071 3075 3078 3082 3086 3089 3092 3095
3081 3079 3076 3074 3071 3068 3066 3063 3062 3059 3057 3054 3052 3049 3047 3045 3044 3043 3043 3037 3030 3028 3027 3024 3024 3023 3023 3022 3021 3020 3019 3018 3019 3019 3018 3018 3018 3018 3018 3019 3021 3020 3020 3020 3018 3018 3020 3021 3022 3023 3023 3026 3029 3031 3033 3036 3039 3042 3044 3045 3046 3049 3050 3048 3045 3044 3043 3043 3043 3042 3045 3047 3044 3045 3047 3048 3050 3055 3061 3065 3068 3071 3075 3078 3081 3085 3089 3092
3080 3078 3075 3073 3070 3068 3065 3062 3060 3058 3056 3053 3051 3049 3046 3044 3043 3042 3038 3032 3029 3026 3024 3023 3023 3022 3021 3021 3019 3018 3017 3016 3016 3016 3016 3015 3016 3015 3015 3016 3017 3017 3017 3016 3015 3016 3017 3018 3018 3019 3022 3025 3027 3028 3031 3034 3037 3040 3041 3040 3041 3044 3047 3048 3045 3041 3037 3038 3040 3039 3041 3044 3041 3039 3042 3044 3048 3054 3058 3060 3063 3067 3071 3075 3078 3082 3085 3089
3079 3077 3074 3072 3070 3067 3065 3062 3060 3058 3055 3052 3050 3048 3046 3044 3043 3040 3035 3031 3028 3024 3022 3022 3021 3020 3019 3018 3016 3014 3014 3013 3013 3013 3012 3012 3012 3011 3012 3012 3013 3013 3012 3011 3012 3013 3013 3014 3015 3017 3019 3022 3024 3026 3028 3030 3032 3036 3036 3034 3035 3036 3039 3042 3040 3037 3035 3035 3035 3036 3037 3038 3036 3037 3040 3042 3046 3051 3054 3057 3061 3064 3067 3071 3074 3078 3081 3085
3078 3076 3074 3071 3069 3066 3064 3062 3059 3057 3055 3052 3050 3047 3046 3045 3041 3038 3035 3033 3029 3024 3021 3020 3017 3017 3016 3014 3012 3011 3010 3009 3008 3008 3008 3009 3008 3007 3008 3009 3009 3010 3008 3008 3010 3010 3011 3012 3013 3014 3016 3017 3020 3022 3022 3023 3026 3029 3029 3029 3029 3028 3030 3034 3034 3034 3034 3031 3032 3034 3033 3032 3033 3035 3038 3040 3043 3047 3051 3056 3059 3061 3064 3067 3070 3074 3078 3082
3077 3075 3072 3070 3068 3065 3063 3061 3059 3056 3053 3051 3049 3046 3045 3043 3039 3036 3034 3031 3027 3023 3021 3018 3014 3013 3012 3010 3008 3008 3008 3006 3004 3004 3005 3005 3005 3004 3004 3005 3006 3007 3007 3008 3008 3008 3008 3007 3008 3010 3011 3013 3016 3018 3019 3021 3024 3025 3025 3027 3026 3022 3023 3026 3026 3027 3028 3027 3029 3030 3029 3029 3031 3031 3035 3039 3041 3044 3049 3053 3056 3059 3061 3065 3068 3072 3076 3079
3075 3074 3072 3069 3067 3064 3062 3060 3058 3055 3052 3050 3048 3046 3044 3042 3037 3034 3030 3026 3023 3020 3017 3015 3013 3010 3008 3006 3005 3005 3005 3003 3002 3003 3003 3002 3002 3001 3001 3002 3003 3005 3007 3007 3005 3004 3004 3003 3004 3007 3009 3012 3014 3016 3019 3021 3021 3022 3024 3025 3023 3021 3022 3023 3023 3024 3025 3026 3026 3026 3027 3029 3029 3029 3033 3037 3040 3042 3046 3050 3053 3055 3058 3063 3065 3069 3073 3076
3074 3072 3070 3067 3065 3062 3060 3059 3057 3055 3052 3050 3048 3046 3045 3041 3037 3033 3028 3024 3021 3018 3014 3011 3010 3008 3005 3004 3003 3002 3002 3001 3001 3001 3000 2999 2999 2999 2999 3000 3001 3002 3004 3004 3003 3002 3002 3001 3003 3006 3008 3011 3013 3015 3017 3017 3017 3019 3021 3021 3021 3021 3023 3023 3023 3025 3026 3025 3024 3025 3026 3026 3026 3029 3032 3035 3037 3040 3044 3047 3050 3052 3056 3059 3062 3066 3070 3072
3073 3071 3068 3066 3064 3061 3059 3057 3056 3053 3051 3050 3047 3045 3043 3039 3036 3032 3027 3023 3020 3017 3013 3010 3007 3006 3005 3003 3002 3001 3001 3000 2999 2999 2999 2998 2998 2997 2998 2999 2999 3001 3002 3002 3002 3000 3000 3001 3002 3004 3007 3009 3013 3016 3017 3017 3016 3016 3017 3019 3021 3021 3021 3021 3021 3022 3024 3023 3021 3021 3022 3021 3022 3025 3029 3032 3034 3037 3041 3045 3048 3051 3053 3056 3060 3064 3067 3069
3073 3070 3068 3066 3063 3060 3058 3057 3054 3052 3050 3048 3045 3042 3040 3037 3034 3030 3026 3022 3019 3015 3012 3009 3006 3005 3004 3003 3002 3001 3001 3000 2999 2998 2998 2997 2997 2996 2997 2997 2998 2999 3000 3002 3001 2999 3000 3001 3001 3003 3005 3008 3013 3015 3016 3016 3016 3016 3017 3019 3019 3016 3017 3018 3017 3018 3021 3021 3017 3017 3019 3020 3021 3022 3026 3030 3032 3034 3039 3043 3046 3048 3051 3054 3057 3061 3065 3067
3072 3069 3066 3064 3062 3059 3058 3056 3053 3051 3049 3046 3044 3042 3039 3035 3032 3029 3025 3021 3018 3013 3010 3007 3005 3004 3003 3003 3002 3000 3000 3000 2998 2997 2996 2996 2996 2995 2996 2997 2998 2998 3000 3001 3000 2999 3000 3000 2999 3001 3005 3008 3011 3012 3012 3013 3014 3016 3018 3018 3017 3015 3015 3016 3015 3014 3016 3015 3014 3015 3017 3018 3018 3021 3025 3028 3030 3033 3037 3040 3043 3046 3048 3052 3055 3058 3062 3064
3071 3068 3065 3063 3061 3059 3057 3055 3053 3051 3048 3045 3043 3040 3037 3034 3030 3027 3024 3020 3016 3013 3009 3006 3005 3004 3003 3002 3001 3000 2999 2998 2997 2996 2996 2997 2996 2994 2995 2997 2997 2998 2999 3000 3000 2999 3000 2999 2997 3000 3004 3006 3007 3008 3009 3011 3011 3013 3014 3013 3014 3015 3016 3016 3015 3013 3012 3010 3010 3014 3016 3015 3017 3020 3023 3026 3029 3032 3035 3038 3041 3044 3047 3050 3053 3055 3058 3061
3071 3069 3067 3064 3062 3059 3056 3054 3051 3049 3046 3045 3042 3039 3037 3033 3028 3025 3023 3020 3015 3012 3008 3005 3004 3003 3002 3001 3000 2999 2998 2997 2996 2996 2997 2996 2996 2995 2995 2996 2997 2998 2999 3000 3000 2999 3000 2999 2997 2998 3001 3004 3005 3007 3009 3010 3010 3011 3011 3011 3012 3013 3014 3014 3013 3012 3011 3009 3009 3012 3012 3013 3015 3018 3021 3025 3028 3031 3033 3036 3039 3042 3045 3047 3050 3054 3056 3058
3072 3070 3068 3065 3061 3058 3056 3053 3051 3048 3046 3045 3043 3040 3036 3032 3028 3025 3023 3019 3014 3011 3007 3005 3003 3002 3001 3000 2999 2998 2998 2997 2996 2996 2997 2997 2996 2995 2995 2996 2998 2999 2999 3001 3000 3000 2999 2999 2997 2997 3000 3003 3005 3007 3009 3009 3010 3011 3010 3010 3011 3012 3012 3011 3009 3010 3009 3008 3009 3010 3009 3010 3014 3017 3019 3023 3026 3030 3032 3035 3038 3041 3043 3044 3047 3051 3054 3056
3072 3069 3067 3064 3061 3058 3055 3054 3053 3051 3048 3045 3043 3039 3036 3032 3029 3026 3023 3019 3014 3010 3008 3005 3003 3002 3001 3000 2999 2998 2998 2998 2997 2997 2998 2997 2997 2996 2995 2997 2999 3000 3000 3000 3001 3000 2999 2997 2997 2998 3001 3004 3006 3007 3009 3009 3010 3010 3010 3010 3010 3010 3010 3010 3009 3009 3008 3006 3006 3007 3007 3010 3014 3017 3020 3023 3026 3029 3031 3034 3036 3039 3041 3043 3045 3048 3052 3055
3072 3068 3064 3061 3060 3058 3055 3054 3053 3050 3047 3044 3041 3037 3035 3033 3031 3027 3023 3019 3015 3011 3009 3006 3004 3002 3001 3000 2999 2998 2998 2998 2998 2998 2999 2999 2998 2997 2997 2998 2999 3000 3000 3000 3000 3000 2999 2997 2996 2997 2998 3001 3003 3005 3007 3008 3009 3009 3009 3009 3009 3009 3010 3010 3010 3011 3010 3007 3006 3007 3007 3010 3015 3018 3020 3023 3025 3028 3030 3032 3035 3037 3039 3042 3045 3047 3050 3052
3071 3069 3066 3061 3058 3057 3054 3052 3051 3048 3045 3042 3039 3037 3035 3034 3032 3029 3024 3019 3015 3011 3009 3007 3005 3003 3001 3001 2999 2998 2998 2999 2999 3000 3000 3000 2999 2998 2999 3000 2999 2999 3000 3000 2999 3000 2999 2998 2997 2997 2997 2998 3001 3002 3003 3005 3008 3009 3009 3008 3008 3009 3011 3011 3012 3012 3011 3009 3010 3010 3008 3010 3015 3018 3020 3023 3025 3027 3029 3031 3034 3036 3038 3041 3044 3046 3047 3049
3070 3070 3068 3063 3058 3056 3054 3052 3051 3048 3045 3042 3039 3037 3036 3034 3031 3028 3024 3020 3016 3012 3009 3007 3006 3004 3002 3001 3000 2999 3000 3000 3000 3001 3001 3001 3000 2999 3000 3000 3000 3000 3000 3000 3000 3001 3001 2999 2998 2998 2998 2998 3000 3000 3002 3004 3006 3007 3008 3008 3009 3010 3011 3012 3012 3011 3011 3009 3009 3010 3010 3013 3015 3018 3020 3023 3025 3026 3028 3030 3032 3034 3036 3039 3042 3043 3044 3047
3071 3070 3067 3063 3060 3057 3056 3055 3053 3049 3046 3044 3040 3038 3036 3034 3030 3026 3023 3020 3017 3014 3010 3007 3006 3004 3003 3002 3000 3000 3001 3001 3002 3002 3002 3001 3001 3001 3001 3001 3001 3000 3001 3001 3002 3002 3002 3000 2999 2999 2999 2999 2999 2999 3001 3003 3004 3006 3007 3007 3009 3010 3010 3011 3011 3011 3012 3011 3009 3010 3013 3015 3016 3018 3021 3023 3025 3027 3028 3029 3031 3033 3035 3037 3039 3040 3041 3044
3073 3070 3067 3063 3061 3058 3056 3054 3051 3048 3047 3046 3043 3039 3036 3033 3030 3026 3021 3019 3018 3016 3012 3008 3005 3004 3003 3002 3002 3001 3002 3002 3003 3003 3003 3003 3002 3002 3002 3002 3002 3002 3001 3002 3004 3003 3002 3001 3001 3001 3000 3000 2999 2999 2999 3001 3003 3005 3006 3006 3008 3009 3010 3010 3011 3012 3013 3013 3011 3012 3014 3016 3017 3019 3022 3024 3026 3027 3027 3028 3029 3032 3034 3035 3037 3037 3039 3043
3073 3070 3067 3064 3062 3058 3054 3052 3050 3049 3048 3046 3043 3040 3036 3032 3030 3027 3023 3019 3017 3016 3014 3010 3006 3004 3004 3003 3003 3002 3003 3003 3004 3003 3004 3004 3004 3004 3003 3003 3004 3004 3003 3004 3004 3004 3003 3001 3001 3001 3001 3001 3001 3001 3000 3001 3001 3003 3004 3006 3007 3009 3010 3011 3012 3013 3014 3014 3013 3014 3016 3018 3019 3020 3022 3025 3026 3026 3027 3027 3029 3031 3032 3033 3034 3035 3038 3043
3071 3069 3066 3063 3061 3057 3053 3053 3052 3051 3049 3046 3042 3039 3036 3032 3030 3027 3024 3021 3017 3014 3013 3010 3007 3006 3005 3004 3004 3003 3003 3004 3004 3004 3004 3004 3005 3005 3005 3005 3005 3005 3005 3005 3005 3004 3003 3002 3001 3001 3001 3001 3001 3002 3001 3001 3001 3001 3002 3004 3006 3008 3010 3012 3013 3014 3015 3015 3015 3015 3016 3017 3019 3021 3021 3023 3025 3026 3027 3027 3029 3030 3030 3031 3032 3034 3038 3042
3069 3067 3064 3061 3058 3055 3053 3053 3053 3051 3048 3045 3041 3037 3035 3032 3030 3026 3024 3023 3020 3016 3013 3011 3008 3007 3006 3005 3005 3004 3004 3003 3004 3005 3005 3005 3006 3006 3006 3006 3006 3006 3006 3006 3006 3004 3003 3002 3002 3001 3000 2999 3000 3001 3001 3001 3002 3002 3001 3001 3004 3006 3009 3011 3013 3014 3016 3016 3016 3015 3014 3015 3018 3020 3021 3022 3024 3026 3027 3027 3028 3029 3029 3030 3032 3034 3037 3040
3068 3066 3063 3060 3057 3055 3053 3053 3053 3051 3048 3044 3040 3038 3034 3032 3030 3027 3023 3021 3020 3018 3016 3013 3011 3009 3008 3006 3005 3005 3004 3003 3004 3004 3005 3005 3006 3006 3006 3006 3006 3007 3006 3007 3006 3005 3004 3003 3002 3001 2999 2998 2998 2999 3000 3001 3001 3000 2999 3000 3002 3004 3007 3009 3011 3014 3015 3016 3016 3015 3014 3016 3019 3021 3022 3024 3025 3025 3026 3026 3027 3027 3028 3029 3030 3032 3035 3037